Cloud_Cover
5 3 0 3 0 0 0 0 0 0 0 1 0 0 0 0 0 1 1 3 0 2 2 1 0 2 5 5 5 5 3 3 5 3 0 3 2 4 5 100 100 100 100 100 100 100 100 100 100
5 5 2 5 0 0 0 0 0 0 0 0 0 0 0 0 0 13 1 2 0 0 0 0 0 5 5 5 5 3 0 3 3 0 0 3 3 96 1 100 100 100 100 100 100 100 100 100 100
35 5 4 0 0 0 0 0 0 0 0 0 0 0 0 0 0 0 0 0 0 5 0 0 5 5 5 5 1 0 1 4 0 5 5 5 5 23 79 69 100 100 100 100 100 100 100 100 100
68 80 68 2 0 0 0 0 0 0 0 0 0 0 0 0 0 0 0 0 0 6 8 5 5 5 5 0 0 0 5 0 0 0 0 3 5 5 5 100 100 100 100 100 100 98 98 94 86
86 70 30 1 3 3 31 98 5 4 0 0 0 0 0 0 1 0 0 0 0 20 9 5 5 5 3 1 0 1 1 0 0 0 13 0 0 0 6 100 100 100 100 100 100 100 54 100 100
74 43 50 5 59 4 4 3 0 0 0 0 0 0 0 0 0 0 0 0 2 12 13 6 3 2 5 5 28 7 2 1 4 2 0 0 0 0 2 12 62 100 100 100 99 100 100 100 100
84 99 70 76 48 19 0 0 0 0 4 3 0 0 0 0 0 0 0 0 3 0 0 10 11 5 5 5 21 5 85 27 1 0 5 3 1 0 2 1 5 6 63 85 100 100 100 100 100
5 100 34 17 99 77 9 10 6 5 28 6 0 0 0 0 0 3 1 0 0 0 15 10 3 5 3 15 31 5 100 9 5 5 5 0 1 0 2 0 0 5 11 100 98 47 100 100 100
8 70 94 60 10 6 21 100 7 0 0 0 0 0 0 0 0 10 96 0 0 0 0 0 0 8 2 6 46 100 37 8 5 5 4 5 24 5 40 3 4 3 6 100 100 100 100 100 100
1 4 12 87 33 31 5 4 0 0 0 0 0 0 0 0 0 0 1 0 0 0 0 0 0 0 0 75 77 49 27 29 32 91 8 5 1 3 100 100 65 5 1 14 15 98 100 100 100
2 0 5 34 5 50 90 8 0 0 0 4 0 0 0 0 0 0 0 0 0 0 0 0 0 0 1 9 88 51 50 94 12 31 10 75 38 52 29 94 43 6 5 0 0 5 68 93 100
76 3 2 67 5 0 5 34 21 3 2 1 0 0 0 0 0 0 0 0 0 0 0 0 0 64 66 64 89 70 100 77 99 94 90 100 99 100 60 42 94 98 48 4 0 2 38 100 80
4 1 0 0 3 1 4 23 0 0 0 0 0 0 0 0 0 0 0 0 0 0 0 0 0 5 33 13 31 40 100 100 95 46 100 100 100 100 100 94 55 100 100 74 27 8 100 97 91
1 0 0 0 0 0 0 0 0 0 0 0 0 0 0 0 0 0 0 0 0 0 0 0 28 93 100 100 100 98 100 100 99 98 87 41 100 100 100 100 90 22 14 50 20 7 81 100 100
0 0 0 0 0 0 0 0 0 0 4 14 0 0 0 0 0 0 0 0 0 0 9 76 100 100 100 100 100 100 100 98 100 100 100 17 100 36 69 100 100 96 100 18 71 13 90 15 14
0 0 0 0 0 0 0 0 0 0 0 0 0 0 0 0 0 0 0 0 0 0 31 4 100 100 100 100 100 100 100 100 100 100 100 25 100 100 96 99 99 97 100 89 12 96 7 21 100
0 0 0 0 0 0 0 0 0 0 0 0 0 0 0 0 0 0 2 0 0 0 1 55 100 100 100 100 100 100 92 100 100 100 100 100 11 95 100 100 84 100 100 100 80 96 98 100 66
3 0 0 0 1 4 0 0 0 0 0 0 0 0 0 0 0 0 0 0 0 0 60 100 100 100 100 99 73 35 100 100 100 100 100 100 39 26 98 87 97 100 100 100 100 96 86 98 100
1 5 0 0 1 0 0 0 0 0 0 0 0 0 0 0 0 0 0 0 3 13 42 98 100 100 100 100 73 76 100 100 100 100 100 54 9 100 100 100 76 37 73 29 100 100 100 98 92
5 0 0 0 0 0 0 0 0 0 0 0 0 3 0 0 0 0 0 0 0 28 87 70 100 100 100 100 100 100 100 100 100 100 100 88 97 98 88 95 49 5 8 3 7 80 100 100 100
7 0 0 0 0 0 0 0 0 0 0 0 0 5 10 4 0 0 0 0 5 61 100 47 100 100 100 100 100 100 100 100 100 100 100 59 90 14 22 49 36 8 5 4 0 1 76 40 100
0 0 0 0 0 0 0 0 0 0 0 0 0 4 7 5 0 0 0 0 0 38 16 7 100 100 100 100 100 100 100 100 100 100 100 100 72 6 53 98 89 5 5 7 6 2 10 100 36
0 0 0 0 0 0 0 0 0 0 0 0 70 66 3 2 15 1 0 0 0 0 0 0 29 100 100 100 100 100 100 100 100 100 45 61 68 16 68 100 92 5 11 8 19 5 5 15 14
5 0 0 0 0 0 0 0 0 0 1 11 84 94 70 67 100 3 0 0 0 0 0 0 7 98 100 100 100 100 100 100 100 100 100 100 22 20 100 100 47 12 10 17 46 5 19 8 5
5 0 0 0 0 0 0 0 0 4 45 24 34 97 97 86 5 0 0 0 0 0 0 2 14 15 100 100 100 100 100 100 100 100 100 100 100 100 100 67 40 30 27 5 5 12 99 13 31
7 0 0 0 0 0 0 0 0 0 5 5 32 100 91 5 0 2 0 3 0 0 0 0 0 6 8 100 100 100 100 100 100 100 100 100 100 100 100 30 58 29 10 2 5 15 44 5 6
0 0 0 0 0 0 0 0 0 0 2 5 17 65 87 71 21 1 0 0 0 0 0 0 0 4 10 97 100 100 100 100 100 100 100 100 100 100 13 42 21 22 30 46 53 42 32 5 48
0 0 0 0 0 0 0 0 0 1 34 45 100 17 33 41 100 100 13 1 38 63 1 4 61 100 100 52 99 100 100 100 100 100 100 100 99 9 10 35 61 6 4 14 40 88 87 90 99
0 0 0 0 0 0 0 0 23 49 89 8 7 2 73 98 100 100 100 47 81 5 4 86 100 100 100 100 10 85 100 100 100 100 100 100 49 7 20 45 29 8 16 10 10 9 35 38 60
0 1 0 0 0 0 0 0 0 0 9 0 10 96 80 100 100 100 100 100 81 1 0 100 100 100 100 100 89 95 90 8 3 5 94 32 5 5 4 5 8 10 6 0 1 37 100 76 75